Torna al catalogo

FORMOSAT7-2/COSMIC2-2

AttivoMeteoVLEO
NORAD 44351·PAYLOAD·🇹🇼 Taiwan

Lanciato Jun 25, 2019 da Cape Canaveral Space Force Station

Loading…

Prossimi Passaggi (prossime 24 ore)

TLE

AggiornatoSource: Space-Track

Epoca: Sep 14, 2026, 08:43 UTC

1 44351U 19036N   26257.36352277  .00002022  00000-0  14642-3 0  9999
2 44351  23.9978 267.4696 0000868 129.8086 230.2492 14.96814450396960

Traccia FORMOSAT7-2/COSMIC2-2 in tempo reale con AllMySat

Download on the App Store